{"data":{"norad_id":60352,"epoch":"2026-09-22T22:54:33.276384Z","epoch_age_seconds":71457,"freshness":"FRESH","line1":"1 60352U 24137A   26265.95455181  .00012818  00000+0  37045-3 0  9993","line2":"2 60352  43.0151  87.5787 0018312 233.2708 126.6465 15.35400636119031","mean_motion":15.35400636,"eccentricity":0.0018312,"inclination_deg":43.0151,"raan_deg":87.5787,"arg_perigee_deg":233.2708,"mean_anomaly_deg":126.6465,"bstar":0.00037045,"rev_number":11903,"period_min":93.786596555767,"perigee_km":447.20925103522,"apogee_km":472.25225789918,"semimajor_km":6837.8677544672,"source":"CELESTRAK","updated_at":"2026-09-23T09:00:20.556705Z"}}